Location: Boćki
(52.6512°N, 23.0459°E)
Time: 14:24:01
(UTC+02:00)

ISS - Pass Details

Date: 23 March 2019
Orbit: 408 x 410 km, 51.6° (Epoch: 24 April)

Event Time Altitude Azimuth Distance (km) Brightness Sun altitude
Rises 18:43:36 0° 208° (SSW) 2,327 0.2 -9.5°
Reaches altitude 10° 18:46:08 10° 188° (S) 1,469 -1.1 -9.9°
Maximum altitude 18:48:25 18° 144° (SE) 1,100 -2.1 -10.2°
Enters shadow 18:49:29 15° 120° (ESE) 1,192 -2.1 -10.3°
